Home   Weather   35°30'N, 79°12'W   Past weeks
Flag for USA

Past Weather in 35°30'N, 79°12'W, USA — Yesterday and Last 2 Weeks

Now
94 °F

Overcast.


Feels Like: 97 °F
Forecast: 96 / 76 °F
Wind: 17 mph from Southwest

Location: Raleigh-Durham International Airport

Current Time: Jul 22, 2019 at 4:56:43 pm

Latest Report: Jul 22, 2019 at 3:51 pm


Visibility: 10 mi

Pressure: 29.88 "Hg

Humidity: 40%

Dew Point: 66 °F

Location of 35°30'N, 79°12'WLocation

Past Weather in 35°30'N, 79°12'W — Graph

°F

35°30'N, 79°12'W Temperature Yesterday

Maximum temperature yesterday: 98 °F (at 4:51 pm)
Minimum temperature yesterday: 73 °F (at 4:51 am)
Average temperature yesterday: 85 °F

High & Low Weather Summary for the Past Weeks

 TemperatureHumidityPressure
High98 °F (Jul 19, 4:51 pm)100% (Jul 8, 6:26 am)30.11 "Hg (Jul 8, 6:26 am)
Low70 °F (Jul 15, 5:51 am)30% (Jul 14, 5:51 pm)29.82 "Hg (Jul 8, 4:51 pm)
Average82 °F71%29.97 "Hg
* Reported Jul 7 3:51 pm — Jul 22 3:51 pm, 35°30'N, 79°12'W. Weather by CustomWeather, © 2019

Note: Actual official high and low records may vary slightly from our data, if they occured in-between our weather recording intervals... More about our weather records

Advertising

35°30'N, 79°12'W Weather History for the Previous 24 Hours

Scroll right to see more
 ConditionsComfort  
Time TempWeatherWind HumidityBarometerVisibility
3:51 pm
Mon, Jul 22
94 °FOvercast.17 mph40%29.88 "Hg10 mi
2:51 pm95 °FPartly sunny.14 mph37%29.90 "Hg10 mi
1:51 pm96 °FBroken clouds.25 mph36%29.92 "Hg10 mi
12:51 pm94 °FBroken clouds.12 mph43%29.93 "Hg10 mi
11:51 am92 °FBroken clouds.14 mph47%29.95 "Hg10 mi
10:51 am91 °FPassing clouds.15 mph49%29.96 "Hg10 mi
9:51 am87 °FPassing clouds.15 mph57%29.96 "Hg10 mi
8:51 am83 °FPassing clouds.13 mph68%29.96 "Hg10 mi
7:51 am80 °FPassing clouds.16 mph74%29.96 "Hg10 mi
6:51 am77 °FPassing clouds.12 mph82%29.95 "Hg10 mi
5:51 am75 °FClear.9 mph85%29.94 "Hg10 mi
4:51 am75 °FPassing clouds.3 mph79%29.94 "Hg10 mi
3:51 am76 °FPassing clouds.7 mph74%29.94 "Hg10 mi
2:51 am76 °FPassing clouds.8 mph74%29.94 "Hg10 mi
1:51 am78 °FPassing clouds.9 mph69%29.95 "Hg10 mi
12:51 am79 °FPassing clouds.6 mph67%29.95 "Hg10 mi
11:51 pm
Sun, Jul 21
81 °FPassing clouds.9 mph65%29.95 "Hg10 mi
10:51 pm82 °FPassing clouds.7 mph63%29.96 "Hg10 mi
9:51 pm85 °FPassing clouds.3 mph59%29.94 "Hg10 mi
8:51 pm86 °FPassing clouds.5 mph55%29.93 "Hg10 mi
7:51 pm91 °FScattered clouds.7 mph44%29.92 "Hg10 mi
6:51 pm95 °FScattered clouds.10 mph37%29.92 "Hg10 mi
5:51 pm98 °FScattered clouds.13 mph36%29.92 "Hg10 mi
4:51 pm98 °FScattered clouds.17 mph39%29.93 "Hg10 mi
Weather by CustomWeather, © 2019

See weather overview